Hauptseite
METAR-TAF:

METAR-TAF

Flughäfen :

Nancy, Frankreich

Breite: 48-41N, Länge: 006-13E, Höhe: 225 m

Beobachtung

Neuester Wetterbericht von vor 25 Minuten, um 01:30 UTC
Wind 2 kt aus unterschiedlichen Richtungen
Temperatur 7°C
Luftfeuchtigkeit 100%
Luftdruck 1022 hPa
Sichtweite: 8000 m
Leicht bewölkt in der Höhe von 4700 ft

METAR: LFSN 200130Z AUTO VRB02KT 8000 FEW047 07/07 Q1022

Zeit: 03:55 (01:55 UTC)


TAF: fehlend

Wetterbeobachtungen und Prognosen von mehr als 4000 Flughäfen (METAR und TAF Bericht).

Die verfügbaren Stationen werden durch gelbe und rote Markierungen auf der Karte dargestellt.

Führen Sie die Maus auf sie, um den Namen der Station zu sehen.

Darauf klicken, um die Beobachtung von Wetterbeobachtungen und Prognosen zu sehen.

Um die Karte zu ändern : klicken Sie auf den grünen Tasten mit einem schwarzen Kreuz Zum Vergrößern, auf den grünen Button mit einem Gedankenstrich zu verkleinern, oder auf die grünen Pfeile für benachbarte Karten.


METAR-TAF: